Location: Middelsbur
(53.6609°N, 7.5020°E)
Time: 23:56:14
(UTC+00:00)

Meteor 2-17 Rocket - Pass Details

Date: 06 July 2020
Orbit: 936 x 956 km, 82.5° (Epoch: 14 August)

Event Time Altitude Azimuth Distance (km) Brightness Sun altitude
Exits shadow 21:43:27 - 180° (S) 2,721 6.3 -10.1°
Reaches altitude 10° 21:43:39 10° 180° (S) 2,649 6.2 -10.1°
Maximum altitude 21:49:40 72° 97° (E) 985 4.5 -10.4°
Drops below altitude 10° 21:55:42 10° 14° (NNE) 2,661 7.6 -10.8°
Sets 21:58:12 0° 13° (NNE) 3,609 8.4 -11.0°
